DW7779 Weather Reports


time (UTC)temp
F
wind
direction
speed
knots
gust
knots
rain 1hr
in
rain 24hr
in
rain mn
in
humidity
%
barometer
mb
20260901131522 59 1.7 4.3 0.00 0.02 0.02 86 1011.3
20260901130021 59 2.6 7.8 0.00 0.02 0.02 86 1011.3
20260901124523 59 3.5 7.0 0.00 0.02 0.02 85 1011.4
20260901123020 58 4.3 8.7 0.00 0.02 0.02 88 1011.2
20260901121528 58 5.2 11.3 0.00 0.02 0.02 90 1011.1
20260901120019 57 5.2 10.4 0.00 0.02 0.02 90 1010.8
20260901114523 57 4.3 9.6 0.00 0.02 0.02 90 1010.6
20260901113017 57 6.1 10.4 0.00 0.02 0.02 90 1010.6
20260901111517 57 5.2 9.6 0.00 0.02 0.02 91 1010.4
20260901110016 56 5.2 12.2 0.01 0.02 0.02 92 1010.3
20260901104526 56 1.7 4.3 0.01 0.02 0.02 94 1010.7
20260901103017 56 0.9 3.5 0.01 0.02 0.02 93 1011.1
20260901101515 58 1.7 5.2 0.01 0.02 0.02 88 1010.8
20260901100013 59 1.7 4.3 0.00 0.01 0.01 82 1011.2
20260901094519 59 0.9 3.5 0.00 0.01 0.01 81 1010.8
20260901093011 60 0.9 4.3 0.00 0.01 0.01 81 1010.7
20260901091513 61 0.9 6.1 0.00 0.01 0.01 78 1010.6
20260901090011 62 4.3 7.8 0.00 0.01 0.01 74 1010.7
20260901084509 63 3.5 11.3 0.00 0.01 0.01 72 1010.9
20260901083008 63 1.7 4.3 0.00 0.01 0.01 72 1011.0
20260901081508 64 2.6 7.8 0.00 0.01 0.01 69 1010.9
20260901080012 64 4.3 8.7 0.00 0.01 0.01 67 1011.2
20260901074507 65 3.5 6.1 0.00 0.01 0.01 66 1011.4
20260901073016 65 3.5 6.1 0.00 0.01 0.01 65 1011.4
20260901071503 65 2.6 5.2 0.00 0.01 0.01 64 1011.4
20260901070003 65 2.6 7.8 0.00 0.01 0.01 64 1011.5
20260901064503 65 2.6 6.1 0.00 0.01 0.01 63 1011.4
20260901063001 65 1.7 5.2 0.00 0.01 0.01 63 1011.7
20260901061502 66 2.6 6.1 0.00 0.01 0.01 62 1011.7
20260901060100 66 3.5 8.7 0.00 0.01 0.01 60 1011.5
20260901054559 67 4.3 10.4 0.00 0.01 0.01 59 1011.7
20260901053114 67 4.3 12.2 0.00 0.01 0.01 59 1011.8
20260901051559 67 6.1 16.5 0.00 0.01 0.01 57 1011.7
20260901050056 68 7.0 13.9 0.00 0.01 0.01 55 1011.9
20260901044557 68 6.1 15.6 0.00 0.01 0.01 53 1011.5
20260901043053 68 7.0 11.3 0.00 0.01 0.01 53 1011.4
20260901041552 69 6.1 13.9 0.00 0.01 0.01 52 1011.3
20260901040049 70 6.1 14.8 0.00 0.01 0.01 50 1011.5
20260901034549 69 7.0 14.8 0.00 0.01 0.01 54 1011.7
20260901033044 69 9.6 18.2 0.00 0.01 0.01 53 1012.0
20260901031546 69 7.0 19.1 0.00 0.01 0.01 54 1012.5
20260901030036 69 7.0 18.2 0.00 0.01 0.01 55 1013.1
20260901024534 68 8.7 16.5 0.00 0.01 0.01 54 1013.5
20260901023031 68 11.3 20.0 0.00 0.01 0.01 54 1014.0
20260901021544 68 7.0 16.5 0.00 0.01 0.01 55 1014.4
20260901020026 69 7.0 13.0 0.00 0.01 0.01 53 1014.7
20260901014522 68 7.0 14.8 0.00 0.01 0.01 54 1015.0
20260901013027 69 6.1 13.9 0.00 0.01 0.01 53 1015.4
20260901011519 68 4.3 9.6 0.00 0.01 0.01 56 1015.9
20260901010033 68 1.7 7.8 0.00 0.01 0.01 58 1015.9
20260901004513 67 5.2 10.4 0.00 0.01 0.01 59 1016.2
20260901003007 66 3.5 8.7 0.00 0.01 0.01 64 1016.2
20260901001503 64 3.5 7.0 0.00 0.01 0.01 71 1016.4
20260901000058 61 5.2 11.3 0.00 0.01 0.01 86 1016.8
20260831234553 58 2.6 6.1 0.00 0.01 0.01 95 1017.0
20260831233050 57 0.0 3.5 0.00 0.01 0.01 98 1017.0
20260831231559 57 0.0 2.6 0.00 0.01 0.01 98 1017.4
20260831230048 56 0.0 2.6 0.00 0.01 0.01 98 1017.7
20260831224540 54 0.0 1.7 0.00 0.01 0.01 98 1018.1
20260831223041 53 0.0 1.7 0.00 0.01 0.01 98 1018.4
20260831221533 52 0.0 0.9 0.00 0.01 0.01 98 1018.7
20260831220029 50 0.0 1.7 0.00 0.01 0.01 98 1018.9
20260831214523 48 0.0 0.0 0.01 0.01 0.01 98 1019.1
20260831213031 47 0.0 0.0 0.01 0.01 0.01 98 1019.3
20260831211521 46 0.0 0.0 0.01 0.01 0.01 98 1019.3
20260831210020 46 0.0 0.0 0.01 0.01 0.01 98 1019.4
20260831204519 46 0.0 0.0 0.00 0.00 0.00 98 1019.4
20260831203018 46 0.0 0.0 0.00 0.00 0.00 98 1019.3
20260831201524 46 0.0 0.0 0.00 0.00 0.00 98 1019.3
20260831200021 46 0.0 0.0 0.00 0.00 0.00 98 1019.6
20260831194514 46 0.0 0.0 0.00 0.00 0.00 98 1019.7
20260831193012 45 0.0 0.0 0.00 0.00 0.00 98 1019.6
20260831191509 44 0.0 0.0 0.00 0.00 0.00 98 1019.9
20260831190010 45 0.0 0.0 0.00 0.00 0.00 98 1020.0
20260831184510 45 0.0 0.0 0.00 0.00 0.00 98 1020.0
20260831183005 44 0.0 0.0 0.00 0.00 0.00 97 1020.1
20260831181503 44 0.0 0.0 0.00 0.00 0.00 97 1020.4
20260831180002 43 0.0 0.0 0.00 0.00 0.00 97 1020.3
20260831174604 43 0.0 0.0 0.00 0.00 0.00 97 1020.5
20260831173059 43 0.0 0.0 0.00 0.00 0.00 97 1020.7
20260831171600 42 0.0 0.0 0.00 0.00 0.00 97 1020.9
20260831170057 41 0.0 0.0 0.00 0.00 0.00 97 1021.1
20260831164551 42 0.0 0.0 0.00 0.00 0.00 97 1021.4
20260831163050 43 0.0 0.0 0.00 0.00 0.00 97 1021.7
20260831161551 43 0.0 0.0 0.00 0.00 0.00 97 1021.9
20260831160046 42 0.0 0.0 0.00 0.00 0.00 97 1022.1
20260831154545 43 0.0 0.0 0.00 0.00 0.00 97 1022.4
20260831153043 43 0.0 0.0 0.00 0.00 0.00 96 1022.5
20260831151539 43 0.0 0.0 0.00 0.00 0.00 96 1022.6
20260831150036 44 0.0 0.0 0.00 0.00 0.00 96 1022.8
20260831144539 44 0.0 0.9 0.00 0.00 0.00 96 1022.9
20260831143034 45 0.0 0.0 0.00 0.00 0.00 96 1023.0
20260831141530 45 0.0 0.0 0.00 0.00 0.00 96 1023.2
20260831140026 44 0.0 0.0 0.00 0.00 0.00 95 1023.3
20260831134524 45 0.0 0.0 0.00 0.00 0.00 95 1023.8
20260831133019 45 0.0 0.0 0.00 0.00 0.00 95 1024.1